Wind_Speed
2 2 2 2 2 2 3 3 3 3 3 3 4 3 3 3 3 4 4 4 4 5 5 6 7 7 7 7 7 7 7 7 7 8 9 9 9 8 8 9 8 8 8
2 2 2 3 3 3 3 4 4 3 3 3 3 3 4 4 4 5 5 6 6 6 7 7 7 8 9 9 8 8 8 8 8 9 9 10 10 10 9 9 9 9 9
3 3 3 3 3 3 4 4 5 4 3 3 4 4 4 5 5 6 7 7 7 7 7 7 8 8 9 10 10 10 9 9 9 9 9 10 11 11 11 11 11 10 10
3 3 4 3 4 3 4 5 5 4 4 4 4 5 5 6 7 7 8 8 8 8 8 8 8 9 10 11 11 11 11 10 10 10 10 10 11 11 11 12 11 11 11
4 4 4 4 4 3 4 4 4 4 5 5 5 6 6 7 8 8 9 9 8 9 9 9 9 9 10 11 11 11 11 11 11 11 11 11 11 11 12 12 11 11 11
5 5 5 5 5 4 4 4 4 5 5 6 7 7 7 8 8 9 9 8 9 9 9 9 9 9 9 10 11 12 12 12 12 12 12 12 12 12 12 12 12 12 11
6 5 5 5 4 4 4 4 4 5 6 6 7 8 8 8 8 8 8 8 9 9 10 10 10 9 10 10 11 12 13 13 13 13 13 12 12 12 13 12 12 11 11
6 6 6 6 4 4 5 5 5 5 6 6 7 7 7 8 8 8 8 8 9 9 10 10 10 10 10 10 10 11 11 12 13 13 13 13 13 13 13 12 11 11 11
6 6 6 6 5 5 5 5 5 6 6 6 6 7 7 7 7 7 8 8 9 10 10 10 11 10 11 10 10 11 11 12 12 12 12 13 13 13 13 12 12 11 11
7 6 6 6 5 5 5 5 6 6 6 5 5 6 6 7 7 7 8 8 8 9 9 9 10 10 10 10 10 10 11 11 11 11 11 12 12 13 13 12 12 11 11
7 7 7 6 5 5 5 5 5 5 5 5 5 5 6 7 7 7 7 7 7 8 8 8 8 9 9 9 9 9 9 10 10 10 10 10 11 11 12 12 11 10 10
7 7 6 6 5 5 4 4 5 5 5 4 4 5 6 6 6 6 6 6 7 7 7 8 8 9 9 8 8 8 8 9 9 9 9 9 10 10 10 10 10 10 10
7 7 6 5 5 4 5 4 4 4 4 3 4 4 5 5 5 5 6 5 6 6 6 6 6 7 7 7 7 8 8 8 7 8 8 8 8 9 9 9 9 9 9
7 7 7 6 5 4 4 4 4 3 2 3 3 4 4 3 3 4 5 5 5 4 4 4 4 5 6 6 7 7 7 7 6 6 6 7 7 7 8 8 8 8 8
8 7 6 6 6 5 4 3 2 1 2 2 2 3 3 3 3 4 4 4 4 4 4 4 4 4 5 5 5 6 6 5 4 5 5 5 5 6 7 7 7 8 8
8 7 7 6 5 5 4 3 3 2 2 1 2 2 2 2 3 4 4 3 4 4 4 4 4 4 4 4 5 4 4 3 3 4 4 4 5 5 6 6 6 7 8
8 8 7 7 6 5 4 4 3 2 2 1 2 2 2 2 3 4 3 3 3 3 3 3 3 3 4 4 4 3 2 2 1 2 3 3 4 4 4 4 5 6 7
9 8 7 7 6 5 6 5 3 3 2 1 1 1 1 2 3 3 3 2 2 2 3 3 3 3 3 3 2 1 1 1 1 1 2 2 3 3 3 3 4 4 5
10 9 9 7 6 6 5 4 3 2 2 1 1 1 1 2 2 2 2 2 2 2 2 3 2 3 2 2 2 1 1 1 1 0 1 1 2 2 2 3 3 3 4
10 10 9 8 7 6 5 5 3 2 2 2 2 1 0 1 2 2 2 2 2 2 3 3 2 2 2 2 2 2 1 1 1 2 1 1 1 1 2 2 2 3 3
10 10 10 10 9 8 6 6 4 3 2 2 2 1 0 1 2 2 2 2 2 2 3 3 3 2 2 2 2 2 2 2 2 2 2 1 1 1 1 2 2 2 2
11 11 11 11 10 9 7 6 6 4 3 3 2 1 1 1 1 2 2 2 2 2 3 3 3 3 3 2 2 3 3 3 3 2 2 2 2 1 0 1 1 1 2
12 11 11 12 11 10 8 7 6 5 4 4 2 2 1 1 1 2 2 2 2 3 3 3 3 3 3 3 3 3 3 4 3 3 2 2 1 0 1 1 0 0 1
12 11 11 12 12 11 9 8 8 7 5 4 3 2 2 1 2 1 1 2 2 2 2 2 3 3 3 3 3 4 3 3 3 3 3 2 1 1 1 1 2 2 1
13 12 12 12 13 12 10 9 9 7 7 5 4 3 2 2 1 1 1 1 1 2 2 2 3 3 4 4 4 4 4 3 3 3 3 2 1 1 1 2 3 3 3
14 14 13 13 13 13 11 10 10 9 8 6 5 4 3 2 1 1 1 1 1 2 2 2 2 2 2 3 3 3 3 3 3 3 2 2 2 1 1 2 3 3 4
Wind_Direction
300 296 301 283 289 305 316 315 320 328 329 340 348 349 345 344 340 336 325 305 290 284 284 283 276 266 267 267 265 264 260 259 256 253 252 251 251 250 248 251 254 255 255
294 286 291 288 285 301 309 315 306 312 313 319 330 331 328 325 321 319 317 307 294 290 287 283 279 267 264 264 265 265 264 262 257 256 255 252 251 251 253 256 258 259 258
288 284 282 282 282 289 305 303 299 308 308 305 312 315 312 309 307 311 310 304 296 292 288 283 280 271 266 265 263 263 262 264 261 258 257 257 254 253 254 255 258 260 258
280 288 280 274 273 281 291 292 303 309 304 304 303 303 301 299 300 302 303 302 296 292 290 287 284 273 267 266 263 261 258 260 263 262 259 261 258 255 256 257 259 261 257
277 287 283 272 276 278 278 283 299 308 306 304 305 299 294 294 295 294 296 297 294 291 289 288 286 277 268 265 263 260 257 257 261 262 262 262 259 256 258 258 259 260 256
279 279 284 277 273 268 274 286 297 304 308 303 303 298 290 293 295 293 294 293 291 290 287 287 285 281 274 268 266 262 259 259 259 261 262 262 260 258 259 261 259 260 259
276 278 277 275 272 273 274 280 290 297 300 302 302 297 293 292 295 294 291 292 293 290 287 284 285 282 276 273 270 269 265 261 261 259 258 260 260 260 261 261 259 259 260
270 272 277 274 275 274 274 275 277 287 295 301 305 303 298 293 293 292 291 291 291 287 285 284 284 282 279 279 275 273 267 263 261 261 259 259 258 258 260 261 260 258 257
267 264 268 267 270 274 274 276 278 285 294 302 305 303 297 290 293 293 295 292 291 290 286 283 283 282 280 278 275 270 268 266 263 262 259 257 258 258 258 259 258 256 255
262 256 265 263 267 274 277 280 277 279 288 296 301 303 300 299 296 294 294 292 295 290 283 282 283 283 282 279 274 270 270 270 266 265 260 259 258 255 253 254 255 254 253
264 263 270 268 265 271 277 278 273 269 282 286 293 300 303 305 301 299 298 294 294 292 286 285 283 282 282 281 279 276 273 273 269 264 262 260 257 251 250 252 253 253 253
265 264 263 271 269 267 275 275 271 266 274 281 293 303 304 308 309 308 303 297 294 294 289 286 284 284 282 281 281 279 279 278 270 264 262 257 253 246 248 249 250 251 252
263 263 260 259 255 262 271 271 270 267 264 272 288 298 305 306 308 312 312 307 298 295 295 293 292 292 288 287 287 288 288 283 271 264 258 255 250 245 245 245 246 248 251
257 257 253 244 245 259 264 268 267 260 252 272 293 302 309 319 316 319 315 312 310 305 305 307 302 300 297 295 293 292 291 283 272 264 254 248 246 242 239 241 244 245 247
256 254 253 247 239 245 247 250 240 243 263 279 301 319 329 333 327 323 318 317 318 311 312 313 312 308 306 308 304 299 298 283 266 253 240 235 232 233 237 240 243 241 241
251 248 247 241 232 231 226 223 231 245 254 268 290 307 320 328 332 328 320 322 324 322 323 319 316 311 310 311 312 307 299 288 260 242 230 228 225 226 231 239 242 239 239
244 242 240 232 222 214 211 219 227 236 244 264 288 318 335 345 341 338 331 326 328 332 332 332 329 323 318 316 318 313 300 297 268 237 225 227 225 224 228 233 234 237 237
241 239 237 230 216 207 205 213 222 226 240 245 264 296 330 350 345 345 345 343 342 342 345 348 347 345 337 335 337 341 332 314 294 226 208 204 208 220 229 236 233 236 238
238 237 230 222 210 201 200 205 211 216 223 216 211 210 288 343 347 357 1 10 4 1 1 360 357 5 9 17 27 33 38 19 22 119 162 184 202 214 220 219 222 229 236
234 229 222 219 209 202 202 203 199 193 181 175 176 187 221 350 5 18 22 27 27 21 14 16 24 39 44 45 56 56 61 47 68 104 118 131 134 191 206 213 226 225 223
229 222 218 219 212 204 205 203 194 187 179 172 176 182 121 17 26 34 32 39 39 29 26 33 39 56 69 72 71 69 72 81 86 92 108 115 113 138 203 225 234 246 232
227 220 214 218 214 207 203 201 192 189 189 177 175 175 132 53 43 45 46 51 54 46 41 37 46 73 86 92 82 77 75 81 89 86 92 98 93 84 49 230 246 266 245
223 218 215 209 204 204 203 198 192 192 195 192 184 179 154 100 70 63 51 51 54 52 43 34 51 66 72 88 87 83 81 74 80 80 97 104 123 144 32 49 296 321 270
220 217 211 205 204 204 205 204 198 195 193 195 191 179 155 123 90 69 49 39 43 44 35 35 48 69 74 87 93 88 83 80 84 84 89 92 100 102 53 28 12 2 332
218 217 210 207 206 206 206 207 204 202 199 198 195 187 177 150 115 81 44 36 36 29 31 41 63 78 81 86 90 89 86 83 89 91 90 79 80 66 46 16 9 359 337
222 219 212 210 208 206 205 206 203 202 199 199 198 198 191 185 158 117 57 54 47 46 34 26 50 77 83 93 95 89 81 71 79 88 83 65 49 53 46 17 15 13 0
Height
5884 5884 5884 5884 5884 5884 5884 5884 5884 5884 5884 5884 5884 5884 5883 5883 5883 5884 5884 5884 5884 5884 5884 5884 5885 5885 5885 5886 5886 5887 5887 5887 5888 5888 5889 5890 5890 5891 5892 5892 5893 5893 5894
5884 5884 5884 5884 5883 5883 5883 5883 5883 5883 5884 5884 5883 5883 5883 5883 5883 5883 5883 5883 5883 5883 5883 5884 5884 5884 5884 5885 5885 5886 5886 5886 5887 5887 5888 5888 5889 5890 5890 5891 5891 5892 5893
5883 5883 5883 5883 5883 5883 5883 5883 5883 5883 5883 5883 5883 5883 5883 5883 5882 5882 5882 5882 5882 5882 5882 5882 5882 5883 5883 5883 5884 5884 5885 5885 5885 5886 5886 5887 5887 5888 5889 5889 5890 5890 5891
5882 5882 5883 5883 5882 5882 5882 5882 5882 5882 5882 5882 5882 5882 5882 5882 5881 5881 5881 5881 5881 5881 5881 5881 5881 5881 5881 5881 5882 5882 5883 5883 5884 5884 5885 5885 5886 5886 5887 5887 5888 5889 5889
5881 5882 5882 5882 5881 5881 5881 5882 5881 5881 5881 5881 5881 5881 5881 5880 5880 5880 5880 5879 5879 5879 5879 5879 5879 5879 5879 5879 5880 5880 5881 5881 5882 5882 5883 5883 5884 5884 5885 5886 5886 5886 5887
5881 5881 5881 5881 5880 5880 5881 5881 5881 5881 5880 5880 5880 5880 5879 5879 5879 5878 5878 5878 5878 5878 5877 5877 5877 5877 5877 5877 5878 5878 5879 5879 5880 5880 5881 5881 5882 5882 5883 5883 5884 5884 5885
5880 5880 5880 5879 5879 5879 5880 5880 5880 5880 5879 5879 5879 5878 5878 5878 5877 5877 5877 5877 5876 5876 5876 5875 5875 5876 5876 5875 5875 5876 5876 5877 5877 5878 5878 5879 5880 5880 5881 5881 5881 5882 5883
5879 5879 5879 5878 5878 5878 5878 5879 5879 5878 5878 5878 5877 5877 5876 5876 5876 5876 5875 5875 5875 5875 5874 5874 5874 5874 5873 5873 5873 5873 5874 5874 5875 5875 5876 5876 5877 5878 5878 5879 5879 5880 5881
5877 5877 5877 5877 5877 5877 5877 5877 5877 5877 5877 5877 5876 5876 5875 5875 5874 5874 5874 5873 5873 5873 5872 5872 5872 5871 5871 5871 5871 5871 5871 5871 5872 5872 5873 5874 5874 5875 5876 5876 5877 5878 5879
5876 5876 5876 5876 5876 5876 5876 5876 5876 5876 5876 5876 5875 5874 5874 5874 5873 5873 5872 5872 5871 5871 5870 5870 5870 5870 5869 5869 5869 5869 5869 5869 5869 5870 5870 5871 5872 5873 5874 5874 5875 5876 5876
5874 5874 5874 5874 5874 5874 5874 5874 5874 5874 5874 5874 5874 5873 5873 5872 5872 5871 5871 5870 5869 5869 5868 5868 5868 5868 5867 5867 5867 5867 5867 5867 5867 5868 5868 5869 5869 5870 5871 5872 5873 5874 5874
5872 5872 5872 5872 5873 5873 5873 5873 5873 5873 5873 5873 5873 5872 5872 5871 5871 5870 5869 5868 5868 5867 5867 5866 5866 5866 5866 5865 5865 5865 5865 5865 5865 5865 5866 5866 5867 5868 5869 5870 5871 5872 5872
5871 5871 5871 5871 5871 5872 5872 5872 5871 5872 5872 5872 5872 5871 5871 5870 5870 5869 5868 5867 5867 5866 5866 5865 5865 5865 5864 5863 5863 5863 5863 5863 5863 5863 5864 5864 5865 5866 5867 5868 5869 5870 5871
5869 5869 5869 5870 5870 5870 5870 5870 5870 5870 5871 5871 5871 5870 5870 5869 5869 5868 5867 5867 5866 5865 5865 5864 5864 5863 5863 5862 5862 5862 5861 5861 5861 5861 5862 5863 5863 5864 5865 5866 5867 5868 5869
5867 5867 5867 5868 5868 5869 5869 5869 5870 5870 5870 5870 5870 5869 5869 5869 5868 5867 5867 5866 5865 5865 5864 5863 5863 5862 5862 5861 5861 5860 5860 5860 5860 5860 5861 5861 5862 5863 5864 5865 5865 5866 5867
5866 5866 5866 5867 5867 5868 5868 5869 5869 5869 5869 5869 5869 5869 5868 5868 5868 5867 5866 5865 5865 5864 5864 5863 5862 5862 5861 5861 5860 5859 5859 5859 5859 5859 5860 5860 5861 5862 5862 5863 5864 5865 5866
5864 5865 5865 5865 5866 5867 5867 5868 5868 5868 5868 5868 5868 5868 5868 5868 5867 5866 5866 5865 5864 5864 5863 5863 5862 5861 5861 5860 5860 5859 5859 5859 5859 5859 5859 5860 5860 5861 5861 5862 5863 5864 5865
5862 5863 5864 5864 5865 5865 5866 5867 5867 5867 5868 5868 5868 5868 5868 5868 5867 5866 5865 5865 5864 5863 5863 5862 5862 5861 5860 5860 5859 5859 5859 5859 5859 5859 5859 5860 5860 5861 5861 5862 5862 5863 5864
5861 5861 5862 5863 5864 5865 5866 5866 5867 5867 5867 5868 5868 5868 5868 5867 5867 5866 5865 5864 5864 5863 5863 5862 5861 5861 5860 5860 5859 5859 5859 5859 5859 5859 5859 5860 5860 5861 5861 5862 5862 5863 5863
5859 5860 5861 5862 5863 5864 5865 5866 5866 5867 5867 5867 5868 5868 5868 5867 5867 5866 5865 5864 5864 5864 5863 5862 5861 5861 5860 5860 5860 5860 5859 5859 5859 5859 5860 5860 5860 5861 5861 5861 5862 5862 5862
5857 5858 5859 5861 5862 5863 5864 5865 5866 5866 5867 5867 5868 5868 5868 5867 5867 5866 5865 5865 5864 5864 5863 5862 5862 5861 5861 5860 5860 5860 5860 5860 5860 5860 5860 5860 5861 5861 5861 5861 5861 5862 5862
5855 5856 5858 5859 5860 5862 5863 5864 5865 5866 5867 5867 5868 5868 5868 5867 5867 5866 5865 5865 5864 5864 5863 5862 5862 5861 5861 5861 5861 5861 5861 5861 5860 5860 5861 5861 5861 5861 5861 5861 5861 5862 5862
5852 5854 5856 5857 5859 5861 5862 5863 5864 5865 5866 5867 5867 5868 5868 5867 5867 5866 5866 5865 5865 5864 5863 5863 5862 5862 5861 5861 5862 5862 5862 5861 5861 5861 5861 5861 5861 5862 5862 5861 5861 5861 5861
5850 5852 5854 5856 5858 5859 5861 5862 5863 5864 5866 5867 5867 5867 5867 5867 5867 5866 5866 5865 5865 5864 5864 5863 5863 5862 5862 5862 5862 5862 5862 5862 5862 5862 5862 5862 5862 5862 5862 5862 5861 5861 5861
5848 5850 5852 5854 5856 5858 5859 5861 5862 5864 5865 5866 5867 5867 5867 5867 5867 5866 5866 5866 5865 5865 5864 5864 5863 5863 5863 5863 5863 5863 5863 5863 5863 5863 5863 5862 5862 5862 5862 5862 5861 5861 5860
5845 5847 5850 5852 5854 5856 5858 5859 5861 5863 5864 5865 5866 5867 5867 5867 5867 5867 5866 5866 5866 5865 5865 5864 5864 5864 5863 5863 5863 5863 5863 5863 5863 5863 5863 5863 5863 5863 5862 5862 5862 5861 5860